Previsão horária em Alipur

Hoje, 25 Janeiro, Segunda-feira

Tempo Temperatura Precipitação Vento Pressão Humidade
00:00 +12°C° 0 mm 1 m/s 743 mmHg 46%
01:00 +12°C° 0 mm 1 m/s 743 mmHg 46%
02:00 +12°C° 0 mm 1 m/s 742 mmHg 46%
03:00 +11°C° 0 mm 1 m/s 742 mmHg 47%
04:00 +11°C° 0 mm 1 m/s 742 mmHg 47%
05:00 +9°C° 0 mm 2 m/s 742 mmHg 48%
06:00 +11°C° 0 mm 1 m/s 743 mmHg 48%
07:00 +11°C° 0 mm 1 m/s 743 mmHg 48%
08:00 +12°C° 0 mm 1 m/s 744 mmHg 48%
09:00 +14°C° 0 mm 1 m/s 744 mmHg 43%
10:00 +16°C° 0 mm 2 m/s 744 mmHg 38%
11:00 +18°C° 0 mm 2 m/s 745 mmHg 34%
12:00 +21°C° 0 mm 2 m/s 743 mmHg 34%
13:00 +23°C° 0 mm 2 m/s 742 mmHg 33%
14:00 +24°C° 0 mm 2 m/s 742 mmHg 33%
15:00 +23°C° 0 mm 2 m/s 741 mmHg 35%
16:00 +21°C° 0 mm 2 m/s 741 mmHg 37%
17:00 +20°C° 0 mm 2 m/s 741 mmHg 40%
18:00 +19°C° 0 mm 2 m/s 741 mmHg 41%
19:00 +18°C° 0 mm 2 m/s 741 mmHg 42%
20:00 +16°C° 0 mm 2 m/s 742 mmHg 43%
21:00 +16°C° 0 mm 2 m/s 742 mmHg 42%
22:00 +15°C° 0 mm 2 m/s 742 mmHg 40%
23:00 +15°C° 0 mm 2 m/s 742 mmHg 39%

Amanhã, 26 Janeiro, Terça-feira

Tempo Temperatura Precipitação Vento Pressão Humidade
00:00 +14°C° 0 mm 2 m/s 741 mmHg 40%
01:00 +14°C° 0 mm 2 m/s 741 mmHg 40%
02:00 +13°C° 0 mm 2 m/s 741 mmHg 41%
03:00 +13°C° 0 mm 2 m/s 741 mmHg 40%
04:00 +12°C° 0 mm 2 m/s 740 mmHg 39%
05:00 +12°C° 0 mm 2 m/s 740 mmHg 38%
06:00 +13°C° 0 mm 2 m/s 741 mmHg 37%
07:00 +13°C° 0 mm 1 m/s 741 mmHg 36%
08:00 +13°C° 0 mm 1 m/s 742 mmHg 35%
09:00 +16°C° 0 mm 1 m/s 742 mmHg 33%
10:00 +19°C° 0 mm 1 m/s 742 mmHg 31%
11:00 +21°C° 0 mm 1 m/s 743 mmHg 29%
12:00 +22°C° 0 mm 1 m/s 742 mmHg 29%
13:00 +23°C° 0 mm 1 m/s 742 mmHg 28%
14:00 +24°C° 0 mm 1 m/s 741 mmHg 28%
15:00 +23°C° 0 mm 1 m/s 741 mmHg 30%
16:00 +22°C° 0 mm 1 m/s 740 mmHg 32%
17:00 +21°C° 0 mm 1 m/s 740 mmHg 34%
18:00 +20°C° 0 mm 1 m/s 741 mmHg 35%
19:00 +19°C° 0 mm 1 m/s 741 mmHg 35%
20:00 +17°C° 0 mm 2 m/s 741 mmHg 36%
21:00 +16°C° 0 mm 2 m/s 741 mmHg 36%
22:00 +16°C° 0 mm 2 m/s 741 mmHg 35%
23:00 +15°C° 0 mm 1 m/s 741 mmHg 35%

Depois de amanhã, 27 Janeiro, Quarta-feira

Tempo Temperatura Precipitação Vento Pressão Humidade
00:00 +14°C° 0 mm 1 m/s 741 mmHg 36%
01:00 +14°C° 0 mm 1 m/s 741 mmHg 36%
02:00 +13°C° 0 mm 1 m/s 740 mmHg 37%
03:00 +13°C° 0 mm 1 m/s 740 mmHg 39%
04:00 +13°C° 0 mm 1 m/s 740 mmHg 41%
05:00 +12°C° 0 mm 1 m/s 740 mmHg 42%
06:00 +13°C° 0 mm 1 m/s 741 mmHg 42%
07:00 +14°C° 0 mm 1 m/s 741 mmHg 42%
08:00 +14°C° 0 mm 1 m/s 742 mmHg 41%
09:00 +16°C° 0 mm 1 m/s 742 mmHg 37%
10:00 +20°C° 0 mm 1 m/s 743 mmHg 32%
11:00 +22°C° 0 mm 1 m/s 743 mmHg 28%
12:00 +23°C° 0 mm 1 m/s 742 mmHg 28%
13:00 +23°C° 0 mm 1 m/s 742 mmHg 28%
14:00 +24°C° 0 mm 1 m/s 741 mmHg 28%
15:00 +23°C° 0 mm 1 m/s 741 mmHg 30%
16:00 +21°C° 0 mm 2 m/s 740 mmHg 32%
17:00 +20°C° 0 mm 2 m/s 740 mmHg 34%
18:00 +19°C° 0 mm 2 m/s 740 mmHg 34%
19:00 +18°C° 0 mm 2 m/s 741 mmHg 34%
20:00 +17°C° 0 mm 2 m/s 741 mmHg 34%
21:00 +17°C° 0 mm 2 m/s 741 mmHg 34%
22:00 +16°C° 0 mm 2 m/s 741 mmHg 34%
23:00 +15°C° 0 mm 2 m/s 742 mmHg 34%

28 Janeiro, Quinta-feira

Tempo Temperatura Precipitação Vento Pressão Humidade
00:00 +15°C° 0 mm 2 m/s 741 mmHg 34%
01:00 +14°C° 0 mm 2 m/s 741 mmHg 35%
02:00 +14°C° 0 mm 1 m/s 741 mmHg 35%
03:00 +13°C° 0 mm 1 m/s 741 mmHg 35%
04:00 +13°C° 0 mm 1 m/s 740 mmHg 36%
05:00 +12°C° 0 mm 1 m/s 740 mmHg 36%
06:00 +13°C° 0 mm 1 m/s 741 mmHg 35%
07:00 +13°C° 0 mm 1 m/s 741 mmHg 35%
08:00 +14°C° 0 mm 1 m/s 742 mmHg 34%
09:00 +16°C° 0 mm 1 m/s 742 mmHg 31%
10:00 +18°C° 0 mm 2 m/s 743 mmHg 29%
11:00 +21°C° 0 mm 2 m/s 743 mmHg 26%
12:00 +23°C° 0 mm 2 m/s 743 mmHg 25%
13:00 +24°C° 0 mm 2 m/s 742 mmHg 23%
14:00 +25°C° 0 mm 3 m/s 742 mmHg 21%
15:00 +23°C° 0 mm 2 m/s 741 mmHg 24%
16:00 +21°C° 0 mm 2 m/s 741 mmHg 26%
17:00 +20°C° 0 mm 2 m/s 741 mmHg 28%
18:00 +19°C° 0 mm 2 m/s 741 mmHg 30%
19:00 +18°C° 0 mm 2 m/s 742 mmHg 31%
20:00 +16°C° 0 mm 2 m/s 742 mmHg 32%
21:00 +16°C° 0 mm 2 m/s 742 mmHg 33%
22:00 +15°C° 0 mm 2 m/s 742 mmHg 33%
23:00 +15°C° 0 mm 2 m/s 743 mmHg 33%

29 Janeiro, Sexta-feira

Tempo Temperatura Precipitação Vento Pressão Humidade

30 Janeiro, Sábado

Tempo Temperatura Precipitação Vento Pressão Humidade
Mostrar mais

Necessitamos do seu Consentimento

A Meteoprog e os seus Fornecedores de Serviços podem armazenar e aceder a dados pessoais como cookies, identificadores do dispositivo ou outras tecnologias semelhantes existentes no seu dispositivo e processar estes dados para personalizar conteúdos e anúncios, assim como funcionalidades nas redes sociais e análise de tráfego.

  • Armazenar e/ou aceder a informações no seu dispositivo

    Os cookies, identificadores do dispositivo ou outras informações podem ser armazenados ou acedidos no seu dispositivo, para os fins acima indicados.

  • Anúncios e conteúdos personalizados, medição de anúncios e conteúdos, dados sobre o público-alvo e desenvolvimento de produtos

    Os anúncios e os conteúdos podem ser personalizados com base num perfil. Podem ser adicionados dados adicionais para uma maior personalização dos anúncios e dos conteúdos. A eficácia dos anúncios e dos conteúdos pode ser medida. Podem ser obtidas informações sobre o público que visualizou os anúncios e os conteúdos. Estes dados podem ser usados para desenvolver ou melhorar sistemas, softwares ou a experiência do utilizador.

Ao clicar em "Eu concordo”, permitirá o uso de cookies, identificadores do dispositivo e web beacons mencionados ou outras tecnologias semelhantes. As configurações do navegador do seu dispositivo podem ser alteradas.

Para certos fins, podem ser invocados interesses legítimos ao invés de consentimento. Pode ler mais informação sobre este assunto na nossa Política de Privacidade e Cookies.